COSMOS 2251 DEB

Satellite information

Favourite Embed

Satellite Type and Status

DEBRISIN ORBIT

Key statistics

Satellite COSMOS 2251 DEB at a glance.

Uptime

11647

Days in orbit

Revolutions

≈ 14.6

Per day

Orbit

LEO

Low Earth Orbit

Inclination

74.1

Latest

Satellite identification and parameters

Extended collection of information and parameters for COSMOS 2251 DEB.

Object identification

Identified? True

Debris? True

Object name: COSMOS 2251 DEB

International designator: 1993-036APJ

Object number (NORAD): 35667

Object ID (CCSDS): 35667

Country: COMMONWEALTH OF INDEPENDENT STATES (CIS)

Current information (Y/N): Y

RCS size: SMALL

Orbital parameters

Period: 98.781 minutes

Inclination: 74.0574 deg

SMA: 7078.534 km

Apoapsis: 716.689 km

Periapsis: 684.108 km

RAAN: 203.8585 deg

Eccentricy: 0.0023014

Argument of periapsis: 321.1285 deg

Mean anomaly: 38.8223 deg

Mean motion: 14.57765888 rev/day

Mean motion (dot): 0.00005056 rev/day2

B* drag term: 0.0011077 1/REarth

Two-line elements (TLE)

Creation date: May 4, 2025, 7:16 a.m.

Reference frame: TEME

Reference center: EARTH

Epoch: May 3, 2025, 10:21 p.m. UTC

TLE line 0: 0 COSMOS 2251 DEB

TLE line 1: 1 35667U 93036APJ 25123.93168761 .00005056 00000-0 11077-2 0 9996

TLE line 2: 2 35667 74.0574 203.8585 0023014 321.1285 38.8223 14.57765888836810

Live tracking on map

Real-time ground track for satellite COSMOS 2251 DEB.

In-orbit conjunctions

A list of the most updated potential collisions computed for object COSMOS 2251 DEB.

Target Orbit TCA Probability of collision Miss distance Type
COSMOS 371 LEO 2025-04-29 03:29:42 0.0001474415 960.0 (m) PAYLOAD
CZ-6A DEB SSO 2024-11-11 03:28:23 0.0001807808 297.0 (m) DEBRIS
CZ-6A DEB SSO 2024-11-08 14:20:24 0.001104655 185.0 (m) DEBRIS
FENGYUN 1C DEB SSO 2024-09-27 01:27:16 0.0001881615 669.0 (m) DEBRIS

Associated space launch

Military communications satellite. Destroyed in a collision with Iridium 33.

COSMOS 2251 DEB was lifted into orbit during the mission ‘Kosmos-3M | Strela-2M 51’, on board a Kosmos-3M space rocket.

The launch took place on June 16, 1993, 4:17 a.m. from 132/1 (132L).

For more information about the launch, click the button.

Launch to space Kosmos-3M | Strela-2M 51
Kosmos-3M | Strela-2M 51

Agency: N/A

Status: Launch Successful

Launch date: June 16, 1993, 4:17 a.m. UTC

Rocket: Kosmos-3M

Launch pad: 132/1 (132L)

Location: Plesetsk Cosmodrome, Russian Federation

...

Latest news about this satellite

There are no fresh news available about this satellite. Check back as we update our databases every day.


Newsletter sign-up

Weekly statistics, charts and insights to help you stay on top of the space industry.